Weather History for KGEZ - November, 2011

Change the Weather History Date:

Tuesday, November 15, 2011

  Actual Average Record
Temperature  
Mean Temperature 55 °F 44 °F  
Max Temperature 59 °F 54 °F 66 °F (2001)
Min Temperature 51 °F 35 °F 15 °F (2014)
Degree Days  
Heating Degree Days 10 21  
Month to date heating degree days 194 272  
Since 1 July heating degree days 630 707  
Cooling Degree Days 0 0  
Month to date cooling degree days 0 0  
Year to date cooling degree days 1244 913  
Growing Degree Days 4 (Base 50)    
Moisture  
Dew Point 51 °F    
Average Humidity 83    
Maximum Humidity 93    
Minimum Humidity 72    
Precipitation  
Precipitation T in 0.13 in 1.63 in (2005)
Month to date precipitation 2.22 1.85  
Year to date precipitation 46.40 38.41  
Sea Level Pressure  
Sea Level Pressure 29.82 in    
Wind  
Wind Speed 8 mph (South)    
Max Wind Speed 20 mph    
Max Gust Speed 23 mph    
Visibility 9 miles    
Events      
T = Trace of Precipitation, MM = Missing Value Source: NWS Daily Summary

Daily Weather History Graph

Daily Weather History Graph

Search for Another Location

Airport or City:

Trip Planner

Search our weather history database for the weather conditions in past years. The results will help you decide how hot, cold, wet, or windy it might be!

Date:

Astronomy

Nov. 15, 2011 Rise Set
Actual Time 7:27 AM EST 5:28 PM EST
Civil Twilight 6:58 AM EST 5:56 PM EST
Nautical Twilight 6:25 AM EST 6:29 PM EST
Astronomical Twilight 5:53 AM EST 7:01 PM EST
Moon 9:36 PM EST (11/15) 11:26 AM EST (11/15)
Length of Visible Light 10h 58m
Length of Day
10h 00m
Waning Gibbous, 79% of the Moon is Illuminated
Nov 15
Waning Gibbous
Nov 18
Last Quarter
Nov 25
New
Dec 2
First Quarter
Dec 10
Full

Hourly Weather History & Observations

Time (EST) Temp. Dew Point Humidity Pressure Visibility Wind Dir Wind Speed Gust Speed Precip Events Conditions
12:53 AM 55.9 °F 53.1 °F 90% 29.78 in 10.0 mi SSW 5.8 mph - N/A   Overcast
1:53 AM 55.9 °F 53.1 °F 90% 29.79 in 10.0 mi SW 5.8 mph - N/A   Overcast
2:53 AM 57.0 °F 48.0 °F 72% 29.77 in 10.0 mi SSW 9.2 mph - 0.00 in   Overcast
3:53 AM 55.0 °F 46.9 °F 74% 29.77 in 10.0 mi SSW 9.2 mph - N/A   Overcast
4:53 AM 53.1 °F 48.0 °F 83% 29.80 in 10.0 mi SSW 11.5 mph - N/A   Partly Cloudy
5:53 AM 52.0 °F 48.0 °F 86% 29.82 in 10.0 mi SSW 6.9 mph - N/A   Clear
6:53 AM 51.1 °F 48.0 °F 89% 29.83 in 10.0 mi South 4.6 mph - N/A   Clear
8:53 AM 52.0 °F 48.9 °F 89% 29.85 in 10.0 mi South 9.2 mph - N/A   Clear
10:03 AM 51.8 °F 48.2 °F 88% 29.85 in 10.0 mi South 10.4 mph - N/A   Partly Cloudy
10:17 AM 51.8 °F 48.2 °F 88% 29.86 in 10.0 mi South 10.4 mph - N/A   Mostly Cloudy
10:53 AM 53.1 °F 50.0 °F 89% 29.85 in 10.0 mi South 10.4 mph - N/A   Overcast
11:53 AM 54.0 °F 51.1 °F 90% 29.85 in 10.0 mi SSW 11.5 mph - N/A   Overcast
12:35 PM 55.4 °F 51.8 °F 88% 29.83 in 10.0 mi SSW 12.7 mph - N/A   Overcast
12:53 PM 55.0 °F 51.1 °F 86% 29.83 in 10.0 mi SSW 10.4 mph - N/A   Overcast
1:12 PM 55.4 °F 51.8 °F 88% 29.82 in 10.0 mi South 12.7 mph - N/A   Overcast
1:22 PM 55.4 °F 51.8 °F 88% 29.81 in 10.0 mi South 12.7 mph - N/A   Overcast
1:53 PM 55.9 °F 51.1 °F 84% 29.80 in 10.0 mi SSW 8.1 mph - N/A   Mostly Cloudy
2:24 PM 57.2 °F 51.8 °F 82% 29.82 in 10.0 mi SSW 10.4 mph - N/A   Scattered Clouds
2:37 PM 57.2 °F 51.8 °F 82% 29.82 in 10.0 mi SSW 11.5 mph - N/A   Mostly Cloudy
2:53 PM 57.0 °F 51.1 °F 81% 29.81 in 10.0 mi SSW 11.5 mph - N/A   Mostly Cloudy
3:53 PM 57.0 °F 50.0 °F 77% 29.81 in 10.0 mi South 10.4 mph - N/A   Overcast
4:31 PM 57.2 °F 51.8 °F 82% 29.81 in 10.0 mi South 11.5 mph - N/A   Overcast
4:53 PM 57.0 °F 50.0 °F 77% 29.81 in 10.0 mi South 11.5 mph - N/A   Overcast
5:53 PM 55.0 °F 50.0 °F 83% 29.81 in 10.0 mi South 8.1 mph - N/A   Partly Cloudy
6:53 PM 53.1 °F 50.0 °F 89% 29.82 in 10.0 mi SSE 6.9 mph - N/A   Scattered Clouds
7:07 PM 53.6 °F 50.0 °F 88% 29.82 in 10.0 mi South 6.9 mph - N/A   Mostly Cloudy
7:25 PM 53.6 °F 50.0 °F 88% 29.82 in 10.0 mi South 5.8 mph - N/A   Scattered Clouds
7:32 PM 53.6 °F 50.0 °F 88% 29.83 in 10.0 mi South 5.8 mph - N/A   Mostly Cloudy
7:53 PM 54.0 °F 51.1 °F 90% 29.83 in 10.0 mi South 8.1 mph - N/A   Mostly Cloudy
8:53 PM 55.0 °F 51.1 °F 86% 29.82 in 10.0 mi South 8.1 mph - N/A   Overcast
9:41 PM 53.6 °F 51.8 °F 94% 29.83 in 10.0 mi South 8.1 mph - N/A   Mostly Cloudy
9:53 PM 54.0 °F 51.1 °F 90% 29.83 in 8.0 mi South 6.9 mph - N/A   Mostly Cloudy
10:00 PM 53.6 °F 51.8 °F 94% 29.82 in 7.0 mi South 6.9 mph - N/A   Mostly Cloudy
10:12 PM 53.6 °F 51.8 °F 94% 29.82 in 7.0 mi South 6.9 mph - N/A   Mostly Cloudy
10:41 PM 53.6 °F 51.8 °F 94% 29.83 in 6.0 mi SSW 4.6 mph - N/A   Overcast
10:53 PM 54.0 °F 52.0 °F 93% 29.83 in 6.0 mi South 4.6 mph - N/A   Overcast
11:24 PM 53.6 °F 51.8 °F 94% 29.83 in 6.0 mi South 6.9 mph - N/A   Overcast
11:53 PM 54.0 °F 52.0 °F 93% 29.83 in 5.0 mi SSW 4.6 mph - N/A   Overcast